GEFSCGP_850_meantemp_024.txt.gz
Temperature
19 17 17 17 17 19 20 20 19 19 20 20 19 17 16 16 16 16 16 16 16 16 16 16 17 17 17 17 17 17 17 16 16 16 16 16 16 15 15 15 14 14 14 13
17 17 18 18 18 18 19 19 19 19 20 20 18 17 16 16 16 16 15 15 15 14 14 15 16 16 16 16 16 16 16 15 15 15 15 15 15 15 14 14 14 13 13 12
17 18 19 18 19 19 18 18 19 19 19 19 18 17 16 16 16 15 15 15 14 14 14 14 14 15 15 15 15 15 15 15 14 14 14 14 14 14 13 13 12 12 12 11
17 18 19 19 19 18 18 18 18 19 18 17 18 17 16 15 15 15 15 14 14 14 13 13 13 14 14 14 14 14 14 14 14 13 13 13 13 13 13 12 12 11 11 10
17 18 18 18 19 18 18 19 19 19 18 16 17 16 15 15 15 15 15 15 14 14 13 13 13 13 13 13 13 14 13 13 13 13 13 13 13 12 12 11 10 10 9 9
18 19 19 19 20 19 19 19 17 15 15 16 16 15 15 15 16 16 15 15 14 14 13 13 13 13 13 13 13 13 13 13 13 13 13 13 12 12 11 10 10 9 8 7
18 19 19 20 20 20 20 17 16 16 15 15 16 15 15 15 16 16 16 15 14 13 13 12 12 12 12 12 12 12 12 13 12 12 12 12 12 11 11 10 9 8 7 6
17 18 19 19 19 19 17 17 16 16 16 16 17 15 15 15 16 17 16 15 14 13 12 12 12 12 12 12 12 12 12 12 12 12 12 12 11 10 9 8 8 7 6 5
16 17 19 19 20 19 17 16 17 16 16 16 15 15 15 14 14 15 15 14 13 12 12 12 11 11 11 11 11 11 11 11 11 11 11 10 9 8 7 7 6 5 5 5
16 17 19 20 20 19 18 16 14 14 15 15 16 16 15 15 14 14 14 14 13 11 11 11 11 11 11 11 11 11 10 10 10 9 8 8 7 6 6 5 5 4 4 4
17 16 17 19 19 19 17 16 15 13 14 15 15 16 15 15 14 14 14 14 12 11 11 11 10 10 11 10 10 10 9 9 8 8 7 6 6 5 5 5 4 4 4 3
15 14 15 16 18 18 18 17 14 15 15 13 14 15 16 13 13 14 14 13 12 11 11 11 10 10 10 10 10 9 8 8 7 6 6 5 5 4 4 4 4 3 3 3
14 13 14 15 16 16 17 17 16 14 13 13 14 15 14 13 13 14 13 12 10 10 10 10 10 10 10 9 9 8 7 7 6 5 5 4 4 4 4 4 3 3 3 3
13 12 13 15 15 15 16 17 16 15 14 13 14 15 14 13 12 12 12 11 9 9 9 9 9 9 9 8 7 7 6 5 5 5 4 4 4 4 4 3 3 3 3 3
11 12 13 13 14 14 15 15 15 15 14 14 15 15 14 13 12 12 11 10 9 8 8 8 9 9 8 7 7 6 5 5 5 5 4 4 4 4 4 4 4 4 3 3
10 12 12 13 14 14 14 14 14 15 15 14 15 14 13 12 12 11 10 9 8 8 7 7 8 8 7 7 6 5 5 5 5 4 4 4 4 4 4 4 4 4 4 4
9 10 11 10 12 13 12 13 14 14 15 14 14 14 11 10 10 10 10 9 8 7 7 7 8 7 7 6 5 5 5 5 4 4 4 4 4 4 4 4 4 4 4 4
8 9 8 8 11 11 11 13 13 14 14 13 13 12 11 10 10 10 10 9 8 7 7 7 7 7 6 5 5 5 5 4 4 4 4 4 4 4 4 4 4 4 4 4
7 8 7 7 9 9 11 12 12 12 12 13 12 10 9 9 8 8 8 8 7 7 7 7 6 6 5 5 4 4 4 4 4 4 4 4 5 5 5 5 4 4 4 3
6 6 7 7 9 9 10 10 11 11 11 11 10 9 8 9 8 7 7 7 7 6 6 6 5 5 4 4 4 4 4 4 4 4 4 5 5 5 5 4 4 3 2 1
6 6 7 7 7 8 9 9 10 11 10 9 9 9 8 7 7 6 6 6 6 6 5 4 4 4 4 4 5 5 5 4 5 4 5 5 5 4 4 3 2 2 1 -0
6 6 6 6 7 7 8 8 8 8 8 8 8 7 6 5 5 5 6 6 5 4 4 4 4 4 4 5 5 5 5 5 4 4 4 4 4 3 3 2 1 0 -0 -1
5 6 6 6 6 7 7 7 8 8 7 7 6 6 6 5 4 5 5 5 4 4 4 4 4 5 5 5 5 5 5 5 4 4 4 3 3 2 1 1 -0 -1 -1 -2
6 6 5 6 6 7 7 7 7 7 7 7 6 6 6 5 5 4 4 4 4 4 4 5 5 5 5 5 5 5 5 4 4 4 3 2 2 1 0 -0 -1 -2 -2 -2
6 6 6 6 7 7 7 6 6 6 6 6 5 5 6 5 5 4 4 4 4 5 5 5 5 5 5 5 5 5 4 4 4 3 2 1 1 -0 -1 -1 -2 -2 -2 -3
6 6 6 6 6 6 6 6 6 6 6 5 5 5 5 5 5 4 4 5 5 5 5 5 5 5 5 5 5 4 4 4 3 2 1 0 -0 -1 -1 -2 -2 -2 -2 -3

GEFSCGP_850_meantemp_030.txt.gz
Temperature
23 25 25 26 26 27 27 26 27 28 28 27 27 28 28 27 26 27 27 26 24 23 21 19 18 17 16 16 17 17 17 17 17 16 16 16 16 16 15 15 15 15 14 14
24 24 26 26 26 25 25 25 26 27 27 26 27 27 27 27 26 26 26 25 24 22 18 17 17 16 16 16 16 16 16 16 16 16 16 16 15 15 15 14 14 14 13 13
24 26 26 25 24 24 25 25 26 26 27 26 26 26 27 27 25 24 24 24 23 21 18 16 16 16 15 15 15 15 15 15 15 15 15 15 15 14 13 13 13 13 12 12
25 26 25 24 24 24 25 26 25 25 25 26 26 26 28 27 26 25 24 23 23 21 18 16 15 15 15 15 15 15 15 15 15 14 14 14 13 13 13 12 12 12 11 10
25 25 25 24 25 25 25 26 25 25 25 25 26 25 27 27 26 27 26 24 22 20 17 15 15 14 14 14 14 14 14 14 14 14 13 13 13 13 12 12 11 10 9 9
26 26 26 25 26 26 25 25 25 25 25 24 25 25 26 28 27 28 27 24 21 19 16 15 14 14 13 13 13 13 13 13 13 13 13 13 13 12 12 11 10 9 8 7
24 25 25 25 25 25 25 24 23 24 24 25 26 26 26 28 28 28 27 24 21 18 15 14 13 13 13 13 13 13 12 12 12 12 12 12 12 12 11 10 9 8 7 7
24 24 25 25 25 25 25 24 23 23 24 26 26 25 27 27 27 25 24 23 20 17 15 13 13 13 13 12 12 12 12 12 12 12 12 12 11 10 9 9 8 7 6 6
25 25 26 26 26 26 25 25 25 24 24 24 25 26 27 27 26 25 24 22 19 16 14 13 12 12 12 12 11 11 11 11 11 11 11 11 10 9 8 7 7 6 5 5
24 24 25 25 25 25 26 26 25 24 22 22 24 25 26 26 27 26 25 22 19 16 13 12 11 11 11 11 11 10 10 10 10 10 10 10 9 8 7 6 6 5 5 4
23 23 24 24 24 25 24 24 24 24 24 23 23 25 27 27 26 26 25 23 19 15 13 11 11 10 10 10 10 10 10 10 10 10 9 9 8 7 6 5 5 4 4 4
21 22 23 24 25 24 25 25 24 23 23 24 23 25 26 26 25 25 24 22 19 16 13 11 10 10 9 9 9 9 9 9 9 9 8 7 7 6 5 5 4 4 4 4
20 21 21 23 23 23 23 24 24 24 23 23 23 24 25 24 24 23 22 21 18 15 13 11 10 9 9 8 8 8 8 8 8 8 7 6 6 5 4 4 4 4 4 4
18 20 21 21 22 22 22 22 23 22 23 23 24 24 25 25 24 23 22 20 17 14 12 11 9 9 8 8 8 8 8 8 7 7 6 5 5 4 4 4 4 4 4 4
19 19 20 20 21 21 21 21 22 21 22 22 23 23 24 24 23 22 21 19 16 13 12 10 9 8 8 7 7 7 7 7 6 6 5 5 4 4 4 4 4 4 4 4
18 18 18 19 20 20 20 20 21 21 21 21 22 22 23 22 21 20 19 18 16 13 11 10 9 8 7 6 6 6 6 6 6 5 5 5 4 4 4 4 4 4 4 4
17 17 17 18 19 18 18 20 20 20 21 21 20 21 20 20 19 18 17 16 15 13 11 9 8 7 6 6 5 5 5 5 5 5 5 5 4 4 4 4 4 4 3 3
15 16 16 17 17 16 19 18 17 18 18 18 17 17 17 16 15 15 14 14 13 11 9 8 7 6 5 5 5 5 5 4 4 4 4 4 4 4 4 4 3 3 2 2
15 15 16 16 16 17 18 16 15 16 17 16 15 15 15 14 14 13 11 11 10 9 8 7 6 5 5 4 4 4 4 4 4 4 4 4 4 4 3 3 2 2 1 1
14 14 15 15 14 15 16 15 15 15 16 14 14 14 14 14 15 12 9 8 7 7 6 5 5 4 4 4 4 4 4 4 4 4 4 4 4 3 2 2 1 1 0 -0
14 14 14 14 14 15 14 14 15 15 15 13 12 12 12 12 11 8 7 6 6 5 5 4 4 4 3 3 3 3 4 4 4 3 3 3 3 2 1 0 -0 -0 -0 -1
14 14 14 14 13 14 13 13 13 13 11 11 11 11 10 8 7 6 5 5 4 4 4 3 3 3 3 3 3 4 3 3 3 3 3 2 1 1 0 -0 -0 -1 -1 -1
13 13 13 13 14 13 12 11 10 10 10 10 10 9 8 6 5 4 4 3 3 3 3 3 3 3 3 3 4 4 3 3 3 2 2 1 0 -0 -0 -0 -0 -1 -1 -1
13 12 12 12 13 11 9 9 8 8 8 8 8 7 6 5 4 3 3 3 3 3 3 3 3 3 4 4 4 3 3 3 2 1 1 1 0 0 -0 -1 -1 -1 -1 -2
12 11 11 11 10 9 8 7 6 6 6 6 6 5 5 4 4 3 3 3 3 3 3 3 4 4 4 4 3 3 2 2 1 1 1 1 1 0 -0 -1 -1 -1 -2 -2
10 10 9 8 7 7 6 5 5 5 5 5 5 4 4 4 4 4 3 3 4 4 4 4 4 4 4 3 3 2 2 2 2 1 1 1 1 0 0 -0 -1 -1 -2 -2

GEFSCGP_850_meantemp_036.txt.gz
Temperature
26 26 26 27 28 28 29 29 30 31 32 32 31 31 32 32 32 32 31 31 31 30 29 27 26 23 21 20 20 19 19 18 18 17 17 17 17 16 16 16 16 16 16 15
26 25 27 28 29 29 28 28 29 30 32 32 31 31 31 32 32 31 31 31 31 30 28 26 24 22 20 20 19 18 18 17 17 17 17 17 16 16 16 15 15 15 15 15
26 27 28 28 28 28 28 28 29 29 30 31 30 30 30 31 31 31 31 31 31 30 27 24 22 21 19 18 18 17 17 17 16 16 16 16 16 15 15 15 14 14 14 14
27 28 29 28 28 28 28 29 29 29 28 28 29 28 29 30 31 31 31 31 31 30 27 24 21 19 18 18 17 17 17 16 16 15 15 16 15 15 14 14 14 14 13 12
27 28 28 28 28 29 28 29 29 29 28 27 28 27 29 30 30 31 32 31 31 30 27 23 20 19 17 17 17 16 16 16 15 15 15 14 14 14 13 13 13 12 12 11
28 29 29 29 29 29 29 28 28 28 27 26 27 27 27 30 31 31 32 31 30 29 26 23 20 18 17 16 16 16 15 15 14 14 14 13 13 13 12 12 12 11 11 10
26 28 29 30 28 29 28 26 25 25 25 25 28 27 28 30 31 32 31 30 29 27 24 21 18 17 16 15 15 15 14 14 14 13 13 13 12 12 12 11 11 11 10 9
25 26 28 29 28 27 27 27 25 24 25 27 28 28 29 31 31 31 30 29 28 26 23 20 17 16 15 15 14 14 14 13 13 12 12 12 12 11 11 10 10 10 9 9
26 27 29 29 29 28 27 27 28 26 26 25 26 28 30 30 30 30 30 29 28 25 21 19 16 15 14 14 13 13 13 12 12 12 11 11 10 10 10 10 9 9 8 8
26 26 28 30 29 29 28 28 27 26 24 24 25 27 28 28 29 29 29 28 26 23 20 17 15 14 14 13 12 12 12 11 11 11 10 10 9 9 9 8 8 8 7 7
26 25 26 28 28 27 27 27 26 26 26 25 24 26 28 28 28 28 28 27 25 21 18 16 14 13 13 12 11 11 10 10 10 9 9 9 8 8 7 7 7 7 6 6
25 25 24 26 28 29 28 27 27 25 24 25 25 26 28 28 27 26 26 24 22 20 17 15 14 12 12 11 10 10 9 9 9 8 8 7 7 7 7 6 6 6 6 5
22 23 22 24 26 27 27 27 27 26 25 25 24 25 27 27 25 24 23 21 20 18 16 14 12 11 10 10 9 9 8 8 7 7 7 6 6 6 6 6 5 5 5 5
21 21 22 22 24 24 25 26 26 26 25 24 25 25 25 24 24 23 21 20 18 17 15 13 11 10 9 9 8 8 7 7 7 7 6 6 6 5 5 5 5 5 5 5
21 21 22 23 24 24 24 24 25 24 24 24 24 24 24 22 22 21 20 19 17 16 14 12 11 9 8 8 7 7 7 6 6 6 5 5 5 5 5 5 5 5 5 5
21 20 20 21 23 23 23 24 24 24 24 24 24 23 21 20 19 18 18 17 16 14 13 11 9 8 8 7 7 6 6 6 5 5 5 5 5 5 5 5 5 4 4 4
20 19 19 19 21 22 22 23 24 24 24 23 22 20 19 18 16 15 15 14 14 12 11 9 8 7 7 6 6 5 5 5 5 4 4 4 4 4 4 4 4 4 4 3
18 18 18 19 19 18 21 23 23 22 21 21 20 19 18 16 13 11 11 11 10 10 9 8 7 6 6 5 5 5 4 4 4 4 4 4 4 4 4 4 3 3 3 2
19 17 17 17 18 19 21 20 20 20 19 18 18 17 17 16 13 10 8 8 8 8 7 7 6 5 5 4 4 4 4 4 4 4 4 4 4 4 3 3 3 2 2 2
19 18 17 17 17 17 16 18 19 19 17 15 16 16 16 16 15 9 7 7 7 6 6 5 5 4 4 4 4 4 4 4 4 4 4 4 3 3 3 2 2 1 1 1
16 16 16 16 16 17 15 17 18 16 13 14 14 14 14 12 10 7 6 5 5 5 4 4 4 4 4 4 4 4 4 4 4 4 3 3 3 3 2 1 1 1 1 1
16 16 15 15 15 14 14 15 13 12 12 12 12 12 10 8 6 5 5 4 4 4 4 4 4 4 4 4 4 4 4 3 3 3 3 2 2 2 1 1 1 1 0 0
17 16 15 14 12 11 11 11 11 11 11 11 11 10 8 6 5 5 4 4 4 4 3 4 4 4 4 4 4 4 3 3 3 3 2 2 2 2 1 1 1 0 0 -0
15 16 16 14 12 11 10 9 9 9 8 8 8 8 7 5 4 4 4 3 3 4 4 4 4 4 4 4 4 4 3 3 3 3 3 3 2 2 1 1 1 0 -0 -1
14 15 14 13 12 11 8 8 7 7 7 7 7 6 5 5 4 4 4 4 4 4 4 4 5 4 4 4 4 4 3 3 3 3 3 3 2 2 1 1 0 -0 -1 -1
14 13 12 10 10 9 7 7 6 6 6 6 5 5 5 4 4 4 4 4 5 5 5 5 5 5 5 4 4 4 3 3 3 3 3 3 3 2 2 1 0 -0 -1 -1

GEFSCGP_850_meantemp_042.txt.gz
Temperature
21 18 17 18 19 19 21 21 20 21 23 24 23 23 25 26 25 24 25 25 25 25 25 25 24 24 23 23 22 22 21 20 20 19 19 18 18 18 17 17 17 16 16 16
19 18 19 20 21 21 21 20 20 21 23 24 23 23 23 24 25 26 25 26 25 25 24 24 23 23 23 22 22 21 21 20 20 19 19 18 18 17 17 16 16 16 16 16
18 19 21 21 21 21 21 20 20 21 22 23 24 22 22 23 26 27 27 27 26 25 24 24 23 23 22 21 21 20 20 19 19 19 18 17 17 17 16 16 15 15 15 15
19 20 22 21 21 21 20 22 22 22 21 20 23 20 21 22 23 24 25 26 25 25 24 23 22 21 21 21 20 19 19 19 18 18 18 17 17 16 16 15 15 14 14 14
19 21 21 21 22 22 21 23 22 23 22 20 20 20 19 20 23 23 23 26 25 24 23 22 21 20 19 19 19 19 19 18 18 17 17 17 16 16 15 15 14 14 13 13
20 22 22 22 23 23 23 23 22 19 18 19 20 20 19 20 22 23 23 24 25 23 21 19 19 18 18 18 18 18 18 17 17 16 16 16 16 15 15 14 13 13 12 12
20 21 22 23 22 23 22 19 18 19 17 18 19 20 19 21 22 22 22 22 22 21 19 18 17 17 17 17 17 17 17 16 16 15 15 15 14 14 14 13 12 12 11 11
18 19 21 23 22 21 21 19 18 18 18 18 20 20 20 21 22 22 21 20 19 18 17 17 17 17 16 17 16 16 16 15 15 14 14 13 13 13 12 12 11 11 10 9
18 19 22 23 24 22 21 19 19 18 18 18 18 20 21 20 19 19 18 17 16 16 16 16 16 16 16 15 15 15 15 14 14 13 13 12 12 11 11 10 10 10 9 8
19 20 22 24 24 23 22 20 16 17 17 17 19 20 19 19 18 17 16 15 15 14 14 15 15 15 15 14 14 14 14 13 13 12 12 11 10 10 10 9 9 8 8 7
19 19 20 22 22 22 22 21 18 16 16 17 18 17 19 17 17 16 15 14 14 14 14 14 14 14 14 14 13 13 13 12 11 11 11 10 9 9 9 8 8 7 7 7
17 16 18 20 22 22 21 20 18 18 17 16 16 16 17 16 16 15 14 14 13 13 13 13 13 13 13 12 12 12 11 11 10 10 9 9 8 8 7 7 7 6 6 6
17 16 17 18 18 20 20 20 20 17 16 16 16 15 16 15 15 14 14 13 12 12 12 12 12 11 11 11 11 10 10 9 9 9 8 8 7 7 6 6 6 6 5 5
17 15 16 17 17 19 19 20 20 18 16 16 16 15 14 13 13 13 12 12 11 11 11 10 10 10 10 10 9 9 8 8 8 7 7 7 6 6 6 5 5 5 5 5
15 15 16 17 18 19 19 19 19 19 18 16 15 14 13 13 13 12 12 11 11 10 10 10 10 9 9 9 8 8 7 7 7 6 6 6 5 5 5 5 4 4 4 4
13 14 15 15 17 18 18 18 18 18 17 16 14 13 12 11 11 11 11 11 10 9 9 9 9 9 8 8 7 7 6 6 6 6 5 5 5 4 4 4 4 4 4 4
13 13 13 14 16 17 15 15 16 15 15 15 13 12 11 10 10 9 10 10 9 9 8 8 8 8 7 7 6 6 6 5 5 5 4 4 4 4 4 4 3 3 3 3
13 13 11 13 15 14 14 15 14 13 12 12 12 11 10 9 8 8 8 8 8 8 7 7 7 6 6 6 5 5 5 4 4 4 4 4 3 3 3 3 3 2 2 2
12 12 12 12 13 14 14 14 14 12 11 11 11 10 8 8 8 7 7 7 7 7 7 7 6 6 5 5 4 4 4 4 4 3 3 3 3 3 3 2 2 2 1 1
11 11 11 11 13 13 12 13 13 12 10 10 10 9 9 9 8 6 6 6 6 6 6 5 5 5 4 4 4 4 4 3 3 3 3 3 3 2 2 2 1 1 1 0
10 10 11 11 11 11 10 12 13 12 10 9 9 9 9 8 7 6 5 5 5 5 5 4 4 4 4 4 4 3 3 3 3 3 3 2 2 2 2 1 1 1 0 0
10 10 10 10 10 10 9 10 9 8 8 8 8 8 7 6 5 5 5 5 4 4 4 4 4 4 4 4 4 3 3 3 3 3 2 2 2 2 1 1 1 0 0 -0
10 9 9 9 8 8 8 8 8 8 8 8 7 7 7 5 5 4 4 4 4 4 4 4 4 3 3 3 3 3 3 3 3 3 2 2 2 2 1 1 1 0 -0 -0
10 10 8 8 7 7 7 7 7 7 7 7 7 7 6 5 4 4 4 4 4 4 4 4 4 4 3 3 3 3 3 3 3 3 2 2 2 1 1 1 0 -0 -0 -1
10 9 8 7 7 7 6 6 6 6 6 7 7 6 6 5 4 4 4 4 4 4 4 4 4 4 3 3 3 3 3 3 3 3 2 2 2 1 1 1 0 -0 -1 -1
8 8 8 7 7 6 6 6 6 5 5 6 5 5 5 5 4 4 4 4 4 4 4 4 4 4 3 3 3 3 3 3 3 3 2 2 2 1 1 1 -0 -1 -1 -1

GEFSCGP_850_meantemp_048.txt.gz
Temperature
16 14 14 14 15 17 18 19 19 19 20 21 20 20 20 21 21 21 22 22 22 23 25 24 24 23 23 23 22 22 21 20 20 19 19 18 17 17 17 17 17 16 16 16
14 15 15 16 16 17 18 18 18 18 19 21 20 19 19 20 20 22 22 22 22 23 23 23 23 23 23 22 22 21 21 20 19 19 18 18 17 17 16 16 16 16 16 16
15 16 17 17 17 17 17 18 18 18 18 19 20 19 19 20 21 21 22 22 22 22 23 23 23 23 23 22 21 21 20 19 19 18 18 17 16 16 16 15 15 15 15 15
16 17 18 18 18 17 17 18 18 19 18 16 19 17 18 19 18 18 20 21 21 21 22 22 22 22 22 21 21 20 19 18 18 17 17 17 16 16 15 15 15 14 14 14
16 17 17 18 18 18 18 19 19 19 18 17 17 17 17 17 19 19 18 19 20 21 21 21 20 21 20 20 20 19 18 17 17 17 16 16 16 15 15 14 14 13 13 13
17 18 18 18 19 19 19 19 17 14 15 16 17 16 17 17 18 17 17 17 17 18 19 18 18 18 18 18 17 17 17 16 16 16 15 15 15 15 14 14 13 13 12 12
18 19 19 19 20 20 18 16 15 16 14 15 17 16 16 17 16 16 16 16 16 16 16 16 16 16 16 16 16 16 16 15 16 15 15 15 14 14 13 13 13 12 12 11
17 17 18 19 19 18 17 16 15 16 16 16 17 16 16 16 16 16 15 15 15 15 15 15 15 15 15 15 15 15 15 15 15 15 15 14 13 13 13 12 12 11 10 10
16 17 19 19 19 18 17 15 16 15 16 16 16 16 17 16 16 16 15 14 14 14 14 14 14 14 14 14 14 14 14 14 14 14 14 13 13 12 12 11 10 10 9 8
16 17 19 20 19 19 18 15 13 14 15 16 17 17 15 15 15 15 15 14 13 13 13 13 13 13 13 13 13 14 14 13 13 13 12 12 11 11 10 10 9 8 8 7
16 17 18 19 19 19 17 16 15 13 14 15 15 15 15 14 14 14 14 13 12 12 12 12 12 12 13 12 13 13 13 12 12 12 11 11 10 9 9 8 8 7 7 6
15 15 16 18 18 18 18 17 14 15 15 14 14 14 14 13 14 14 13 12 12 11 11 11 12 12 12 12 12 12 11 11 11 10 10 9 9 8 8 7 7 6 6 5
14 14 15 17 17 17 17 17 15 13 12 13 14 14 14 14 13 13 12 11 11 11 11 11 11 11 11 11 11 10 10 10 9 9 8 8 7 7 6 6 6 5 5 5
14 13 14 15 15 16 16 17 16 15 13 13 14 14 13 13 13 12 11 10 10 10 10 10 10 10 10 10 9 9 9 8 8 7 7 7 6 6 5 5 5 5 4 4
13 13 14 15 15 16 15 15 15 15 15 14 14 13 13 12 12 11 10 10 10 9 9 9 9 9 9 8 8 8 7 7 7 6 6 6 5 5 5 4 4 4 4 3
11 13 14 14 15 15 14 13 14 14 14 14 13 12 11 11 10 10 10 9 9 8 8 8 8 8 7 7 7 7 6 6 6 6 5 5 4 4 4 4 3 3 3 3
10 12 12 13 14 14 13 12 12 12 12 13 13 12 11 10 9 9 9 9 8 8 8 7 7 7 6 6 6 6 5 5 5 5 4 4 4 4 3 3 3 2 2 2
10 11 10 11 13 13 12 12 12 11 11 11 11 10 10 8 7 8 8 8 8 8 7 7 6 6 6 5 5 5 5 4 4 4 4 3 3 3 3 2 2 2 1 1
9 10 10 10 11 12 12 12 11 11 10 10 10 9 8 7 8 7 7 8 7 7 7 6 6 5 5 5 4 4 4 4 4 3 3 3 3 2 2 2 1 1 1 0
8 8 9 10 11 11 11 11 11 11 10 9 9 8 8 8 8 6 6 7 6 6 6 5 5 5 4 4 4 4 3 3 3 3 3 2 2 2 1 1 1 0 0 -0
8 8 8 9 10 10 9 9 10 10 10 8 8 8 8 7 7 6 6 6 6 5 5 5 4 4 4 3 3 3 3 3 3 2 2 2 2 1 1 1 1 0 -0 -0
8 8 8 8 9 9 7 8 9 8 7 8 8 8 7 6 5 5 5 5 5 4 4 4 4 3 3 3 3 3 3 3 2 2 2 2 1 1 1 1 0 -0 -0 -1
7 7 7 7 8 7 6 6 6 7 7 7 7 7 7 5 5 5 4 4 4 4 4 3 3 3 3 3 3 3 3 2 2 2 2 2 1 1 1 1 0 -0 -1 -1
8 7 7 7 7 6 6 6 6 7 7 7 7 6 6 5 5 4 4 4 4 3 3 3 3 3 3 3 3 3 3 2 2 2 2 2 2 1 1 0 0 -0 -1 -1
7 7 7 7 7 6 6 6 6 6 6 6 6 6 6 5 5 4 4 4 4 3 3 3 3 3 3 3 3 3 3 3 2 2 2 2 2 1 1 0 -0 -1 -1 -1
6 6 7 7 7 5 5 5 5 5 6 6 6 5 5 5 4 4 4 4 4 3 3 3 3 3 3 3 3 3 3 3 3 2 2 2 2 1 1 0 -0 -1 -1 -1